Flag for Spain Weather past 2 weeks in Alicante, Spain

Now
68 °F

Passing clouds.


Feels Like: 68 °F
Forecast: 57 / 71 °F
Wind: 6 mph from West

Location: Alicante / El Altet

Current Time: Apr 27, 2015 at 9:40:54 PM

Latest Report: Apr 27, 2015 at 9:00 PM


Visibility: N/A

Pressure: 29.92 "Hg

Humidity: 35%

Dew point: 39 °F

Location of AlicanteLocation

Historic Weather in Alicante — Graph

°F

Alicante temperature yesterday

Maximum temperature yesterday: 79 °F (at 2:00 PM)
Minimum temperature yesterday: 59 °F (at 5:30 AM)
Average temperature yesterday: 67 °F

Past Weeks' High & Low Weather Summary

 TemperatureHumidityPressure
High79 °F (Apr 26, 2:00 PM)100% (Apr 16, 8:30 AM)30.36 "Hg (Apr 16, 8:30 AM)
Low50 °F (Apr 18, 6:30 AM)21% (Apr 19, 3:30 PM)29.65 "Hg (Apr 26, 5:00 PM)
Average64 °F65%30.05 "Hg
* Reported Apr 12 8:00 PM — Apr 27 8:30 PM, Alicante, Weather by CustomWeather, © 2015

Note: Actual official high and low records may vary slightly from our data, if they occured in-between our weather recording intervals... More about our weather records

Advertising

Alicante weather history for previous 24 hours

 ConditionsComfort  
Time TempWeatherWind HumidityBarometerVisibility
8:30 PM
Mon, Apr 27
72 °FPassing clouds.14 mph31%29.89 "HgN/A
8:00 PM72 °FPassing clouds.16 mph31%29.89 "HgN/A
7:30 PM72 °FPassing clouds.18 mph31%29.89 "HgN/A
7:00 PM73 °FScattered clouds.18 mph29%29.89 "HgN/A
6:30 PM73 °FScattered clouds.17 mph27%29.86 "HgN/A
6:00 PM75 °FScattered clouds.16 mph25%29.86 "HgN/A
5:30 PM73 °FScattered clouds.14 mph29%29.86 "HgN/A
5:00 PM73 °FScattered clouds.14 mph27%29.89 "HgN/A
4:30 PM73 °FScattered clouds.20 mph29%29.89 "HgN/A
4:00 PM75 °FScattered clouds.20 mph25%29.89 "HgN/A
3:30 PM75 °FScattered clouds.20 mph25%29.89 "HgN/A
3:00 PM73 °FScattered clouds.20 mph29%29.89 "HgN/A
2:30 PM73 °FScattered clouds.23 mph27%29.86 "HgN/A
2:00 PM73 °FScattered clouds.23 mph29%29.86 "HgN/A
1:30 PM73 °FScattered clouds.25 mph29%29.89 "HgN/A
1:00 PM73 °FScattered clouds.20 mph29%29.89 "HgN/A
12:30 PM72 °FScattered clouds.22 mph33%29.89 "HgN/A
12:00 PM70 °FScattered clouds.21 mph35%29.89 "HgN/A
11:30 AM70 °FScattered clouds.22 mph35%29.89 "HgN/A
11:00 AM68 °FPassing clouds.21 mph40%29.89 "HgN/A
10:30 AM68 °FPassing clouds.16 mph40%29.86 "HgN/A
10:00 AM66 °FPassing clouds.22 mph46%29.86 "HgN/A
9:30 AM64 °FPassing clouds.17 mph49%29.83 "HgN/A
9:00 AM64 °FPassing clouds.15 mph49%29.83 "HgN/A
8:30 AM63 °FPassing clouds.15 mph52%29.83 "HgN/A
8:00 AM61 °FPassing clouds.12 mph55%29.83 "HgN/A
7:30 AM61 °FPassing clouds.16 mph55%29.83 "HgN/A
7:00 AM61 °FPassing clouds.14 mph55%29.80 "HgN/A
6:30 AM63 °FPassing clouds.15 mph52%29.80 "HgN/A
6:00 AM61 °FPassing clouds.10 mph59%29.80 "HgN/A
5:30 AM61 °FPassing clouds.5 mph63%29.80 "HgN/A
5:00 AM59 °FPassing clouds.2 mph72%29.80 "HgN/A
4:30 AM59 °FPassing clouds.1 mph68%29.80 "HgN/A
4:00 AM61 °FPassing clouds.5 mph63%29.77 "HgN/A
3:30 AM61 °FPassing clouds.5 mph63%29.77 "HgN/A
3:00 AM63 °FPassing clouds.8 mph59%29.77 "HgN/A
2:30 AM61 °FPassing clouds.7 mph68%29.77 "HgN/A
2:00 AM63 °FPassing clouds.10 mph59%29.80 "HgN/A
1:30 AM63 °FPassing clouds.12 mph59%29.77 "HgN/A
1:00 AM63 °FPassing clouds.12 mph59%29.77 "HgN/A
12:30 AM63 °FPassing clouds.9 mph64%29.80 "HgN/A
12:00 AM63 °FPassing clouds.8 mph64%29.80 "HgN/A
11:30 PM
Sun, Apr 26
61 °FPassing clouds.7 mph72%29.80 "HgN/A
11:00 PM61 °FPassing clouds.7 mph72%29.80 "HgN/A
10:30 PM63 °FPassing clouds.9 mph68%29.77 "HgN/A
10:00 PM63 °FPassing clouds.7 mph68%29.77 "HgN/A
9:30 PM64 °FScattered clouds.8 mph60%29.77 "HgN/A
9:00 PM66 °FBroken clouds.15 mph56%29.74 "HgN/A
Weather by CustomWeather, © 2015

See weather overviewHow to use our weather pages